This is the latest recevied weather packets stored in our database for station/object DO1AA. If no packets are shown the sender has not sent any weather packets the latest 10 day(s).
| Time | Temp. | Humidity | Pressure | Rain* | Wind** | Luminosity | Snow |
|---|---|---|---|---|---|---|---|
| 1777567804 | 18.89° C | 36% | 1016.5 hPa | 0 mm | - | - | - |
| 1777564204 | 18.89° C | 36% | 1016.8 hPa | 0 mm | - | - | - |
| 1777562403 | 18.33° C | 36% | 1016.8 hPa | 0 mm | - | - | - |
| 1777559404 | 18.89° C | 35% | 1017.2 hPa | 0 mm | - | - | - |
| 1777554605 | 18.89° C | 34% | 1017.8 hPa | 0 mm | - | - | - |
| 1777554004 | 18.33° C | 36% | 1018.1 hPa | 0 mm | - | - | - |
| 1777552805 | 18.33° C | 35% | 1018.4 hPa | 0 mm | - | - | - |
| 1777551005 | 18.33° C | 36% | 1018.4 hPa | 0 mm | - | - | - |
| 1777541405 | 14.44° C | 35% | 1019.7 hPa | 0 mm | - | - | - |
| 1777536604 | 12.22° C | 35% | 1020.3 hPa | 0 mm | - | - | - |
| 1777522804 | -1.67° C | 87% | 1019.7 hPa | 0 mm | - | - | - |
| 1777502404 | 1.67° C | 78% | 1018.8 hPa | 0 mm | - | - | - |
| 1777494604 | 4.44° C | 65% | 1018 hPa | 0 mm | - | - | - |
| 1777493404 | 5° C | 62% | 1017.8 hPa | 0 mm | - | - | - |
| 1777483203 | 12.78° C | 34% | 1016.7 hPa | 0 mm | - | - | - |
| 1777471205 | 13.89° C | 30% | 1016.4 hPa | 0 mm | - | - | - |
| 1777468204 | 14.44° C | 32% | 1016.6 hPa | 0 mm | - | - | - |
| 1777467007 | 14.44° C | 31% | 1016.3 hPa | 0 mm | - | - | - |
| 1777465804 | 15° C | 32% | 1016.5 hPa | 0 mm | - | - | - |
| 1777462805 | 13.89° C | 32% | 1016.6 hPa | 0 mm | - | - | - |
| 1777458605 | 13.33° C | 34% | 1017 hPa | 0 mm | - | - | - |
| 1777452006 | 11.11° C | 33% | 1017.2 hPa | 0 mm | - | - | - |
| 1777450803 | 11.11° C | 35% | 1017.1 hPa | 0 mm | - | - | - |
| 1777450202 | 10.56° C | 38% | 1016.9 hPa | 0 mm | - | - | - |
| 1777447803 | 10.56° C | 44% | 1016.6 hPa | 0 mm | - | - | - |
* Rain latest hour (hover to see other rain measurements)
** Current wind speed in m/s (hover to see current wind gust speed)